QPF
0.00 0.00 0.00 0.00 0.00 0.01 0.01 0.01 0.00 0.00 0.00 0.00 0.00 0.00 0.01 0.02 0.01 0.00 0.00 0.00 0.00 0.00 0.00 0.00 0.00 0.01 0.01 0.01 0.01 0.00 0.00 0.00 0.00 0.00 0.00 0.00 0.00 0.00 0.00 0.00 0.00 0.00 0.00
0.00 0.00 0.00 0.00 0.00 0.01 0.01 0.01 0.00 0.00 0.00 0.00 0.00 0.00 0.00 0.00 0.00 0.00 0.00 0.00 0.00 0.00 0.00 0.00 0.00 0.00 0.01 0.01 0.01 0.00 0.00 0.00 0.00 0.00 0.00 0.00 0.00 0.00 0.00 0.00 0.00 0.00 0.01
0.00 0.00 0.00 0.00 0.00 0.01 0.01 0.00 0.00 0.00 0.00 0.00 0.00 0.00 0.00 0.00 0.00 0.00 0.00 0.00 0.00 0.00 0.00 0.00 0.00 0.00 0.00 0.00 0.00 0.00 0.00 0.00 0.00 0.00 0.00 0.00 0.00 0.00 0.00 0.00 0.00 0.00 0.01
0.00 0.00 0.00 0.00 0.00 0.01 0.00 0.00 0.00 0.00 0.00 0.00 0.00 0.00 0.00 0.00 0.00 0.00 0.00 0.00 0.00 0.00 0.00 0.00 0.00 0.00 0.00 0.00 0.00 0.00 0.00 0.00 0.00 0.00 0.00 0.00 0.00 0.00 0.00 0.00 0.00 0.00 0.01
0.00 0.00 0.00 0.00 0.01 0.00 0.00 0.00 0.00 0.00 0.00 0.00 0.00 0.00 0.00 0.01 0.02 0.01 0.00 0.00 0.00 0.00 0.00 0.00 0.00 0.00 0.00 0.00 0.00 0.00 0.00 0.00 0.00 0.00 0.00 0.00 0.00 0.00 0.00 0.00 0.00 0.00 0.00
0.00 0.00 0.00 0.00 0.00 0.00 0.00 0.00 0.00 0.00 0.00 0.00 0.00 0.00 0.00 0.02 0.04 0.02 0.01 0.00 0.00 0.00 0.00 0.00 0.00 0.00 0.00 0.00 0.00 0.00 0.00 0.00 0.00 0.00 0.00 0.00 0.00 0.00 0.00 0.00 0.00 0.00 0.00
0.00 0.00 0.00 0.00 0.00 0.00 0.00 0.00 0.00 0.00 0.00 0.00 0.00 0.00 0.00 0.01 0.05 0.04 0.02 0.00 0.00 0.00 0.00 0.00 0.00 0.00 0.00 0.00 0.00 0.00 0.00 0.00 0.00 0.00 0.00 0.00 0.00 0.00 0.00 0.00 0.00 0.00 0.00
0.00 0.00 0.00 0.00 0.00 0.00 0.00 0.00 0.00 0.00 0.00 0.00 0.00 0.00 0.00 0.01 0.03 0.04 0.03 0.00 0.00 0.00 0.00 0.00 0.00 0.00 0.00 0.00 0.00 0.00 0.00 0.00 0.00 0.00 0.00 0.00 0.00 0.00 0.00 0.00 0.00 0.00 0.00
0.00 0.00 0.00 0.00 0.00 0.00 0.00 0.00 0.00 0.00 0.00 0.00 0.00 0.00 0.00 0.00 0.00 0.01 0.01 0.00 0.00 0.00 0.00 0.00 0.00 0.00 0.00 0.00 0.00 0.00 0.00 0.00 0.00 0.00 0.00 0.00 0.00 0.00 0.00 0.00 0.00 0.00 0.00
0.00 0.00 0.00 0.00 0.00 0.00 0.00 0.00 0.00 0.00 0.00 0.00 0.00 0.00 0.00 0.00 0.00 0.00 0.00 0.00 0.00 0.00 0.00 0.00 0.00 0.00 0.00 0.00 0.00 0.00 0.00 0.00 0.00 0.00 0.00 0.00 0.00 0.00 0.00 0.00 0.00 0.00 0.00
0.00 0.00 0.00 0.00 0.00 0.00 0.00 0.00 0.00 0.00 0.00 0.00 0.00 0.00 0.00 0.00 0.00 0.00 0.00 0.00 0.00 0.00 0.00 0.00 0.00 0.00 0.00 0.00 0.00 0.00 0.00 0.00 0.00 0.00 0.00 0.00 0.00 0.00 0.00 0.00 0.00 0.00 0.00
0.00 0.00 0.00 0.00 0.00 0.00 0.00 0.00 0.00 0.00 0.00 0.00 0.00 0.00 0.00 0.00 0.00 0.00 0.00 0.00 0.00 0.00 0.00 0.00 0.00 0.00 0.00 0.00 0.00 0.00 0.00 0.00 0.00 0.00 0.00 0.00 0.00 0.00 0.00 0.00 0.00 0.00 0.00
0.00 0.00 0.00 0.00 0.00 0.00 0.00 0.00 0.00 0.00 0.00 0.00 0.00 0.00 0.00 0.00 0.00 0.00 0.00 0.00 0.00 0.00 0.00 0.00 0.00 0.00 0.00 0.00 0.00 0.00 0.00 0.00 0.00 0.00 0.00 0.00 0.00 0.00 0.00 0.00 0.00 0.00 0.00
0.00 0.00 0.00 0.00 0.00 0.00 0.00 0.00 0.00 0.00 0.00 0.00 0.00 0.00 0.00 0.00 0.00 0.00 0.00 0.00 0.00 0.00 0.00 0.00 0.00 0.00 0.00 0.00 0.00 0.00 0.00 0.00 0.00 0.00 0.00 0.00 0.00 0.00 0.00 0.00 0.00 0.00 0.00
0.00 0.00 0.00 0.00 0.00 0.00 0.00 0.00 0.00 0.00 0.00 0.00 0.00 0.00 0.00 0.00 0.00 0.00 0.00 0.00 0.01 0.01 0.01 0.01 0.00 0.00 0.00 0.00 0.00 0.00 0.00 0.00 0.00 0.00 0.00 0.00 0.00 0.00 0.00 0.00 0.00 0.00 0.01
0.00 0.00 0.00 0.00 0.00 0.00 0.00 0.00 0.00 0.00 0.00 0.00 0.00 0.00 0.00 0.00 0.00 0.00 0.01 0.01 0.01 0.01 0.01 0.00 0.00 0.00 0.00 0.00 0.00 0.00 0.00 0.00 0.00 0.00 0.00 0.00 0.00 0.00 0.00 0.00 0.00 0.00 0.01
0.00 0.00 0.00 0.00 0.00 0.00 0.00 0.00 0.00 0.00 0.00 0.00 0.00 0.00 0.00 0.00 0.00 0.00 0.01 0.01 0.00 0.00 0.00 0.00 0.00 0.00 0.00 0.00 0.00 0.00 0.00 0.00 0.00 0.00 0.00 0.00 0.00 0.00 0.00 0.00 0.00 0.00 0.01
0.00 0.00 0.00 0.00 0.00 0.00 0.00 0.00 0.00 0.00 0.00 0.00 0.00 0.00 0.00 0.00 0.00 0.00 0.00 0.00 0.00 0.00 0.00 0.00 0.00 0.00 0.00 0.00 0.00 0.00 0.00 0.00 0.00 0.00 0.00 0.00 0.00 0.00 0.00 0.00 0.00 0.00 0.00
0.00 0.00 0.00 0.00 0.00 0.00 0.00 0.00 0.00 0.00 0.00 0.00 0.00 0.00 0.00 0.00 0.00 0.00 0.00 0.00 0.00 0.00 0.00 0.00 0.00 0.00 0.00 0.00 0.00 0.00 0.00 0.00 0.00 0.00 0.00 0.00 0.00 0.00 0.00 0.00 0.00 0.00 0.01
0.00 0.00 0.00 0.00 0.00 0.00 0.00 0.00 0.00 0.00 0.00 0.00 0.00 0.00 0.00 0.00 0.00 0.00 0.00 0.00 0.00 0.00 0.00 0.00 0.00 0.00 0.00 0.00 0.00 0.00 0.00 0.00 0.00 0.00 0.00 0.00 0.00 0.00 0.00 0.00 0.00 0.00 0.00
0.00 0.00 0.00 0.00 0.00 0.00 0.00 0.00 0.00 0.00 0.00 0.00 0.00 0.00 0.00 0.00 0.00 0.00 0.00 0.00 0.00 0.00 0.00 0.00 0.00 0.00 0.00 0.00 0.00 0.00 0.00 0.00 0.00 0.00 0.00 0.00 0.00 0.00 0.00 0.00 0.00 0.01 0.03
0.00 0.00 0.00 0.00 0.00 0.00 0.00 0.00 0.00 0.00 0.00 0.00 0.00 0.00 0.00 0.00 0.00 0.00 0.00 0.00 0.00 0.00 0.00 0.00 0.00 0.00 0.00 0.00 0.00 0.00 0.00 0.00 0.00 0.00 0.00 0.00 0.00 0.00 0.00 0.00 0.01 0.02 0.04
0.00 0.00 0.00 0.00 0.00 0.00 0.00 0.00 0.00 0.00 0.00 0.00 0.00 0.00 0.00 0.00 0.00 0.00 0.00 0.00 0.00 0.00 0.00 0.00 0.00 0.00 0.00 0.00 0.00 0.00 0.00 0.00 0.00 0.00 0.00 0.00 0.00 0.00 0.00 0.00 0.00 0.00 0.00
0.00 0.00 0.00 0.00 0.00 0.00 0.00 0.00 0.00 0.00 0.00 0.00 0.00 0.00 0.00 0.00 0.00 0.00 0.00 0.00 0.00 0.00 0.00 0.00 0.00 0.00 0.00 0.00 0.00 0.00 0.00 0.00 0.00 0.00 0.00 0.00 0.00 0.00 0.00 0.00 0.00 0.00 0.00
0.00 0.00 0.00 0.00 0.00 0.00 0.00 0.00 0.00 0.00 0.00 0.00 0.00 0.00 0.00 0.00 0.00 0.00 0.00 0.00 0.00 0.00 0.00 0.00 0.00 0.00 0.00 0.00 0.00 0.00 0.00 0.00 0.00 0.00 0.00 0.00 0.00 0.00 0.00 0.00 0.00 0.00 0.00
0.00 0.00 0.00 0.00 0.00 0.00 0.00 0.00 0.00 0.00 0.00 0.00 0.00 0.00 0.00 0.00 0.00 0.00 0.00 0.00 0.00 0.00 0.00 0.00 0.00 0.00 0.00 0.00 0.00 0.00 0.00 0.00 0.00 0.00 0.00 0.00 0.00 0.00 0.00 0.00 0.00 0.00 0.00
MSLP
1009.92 1009.94 1010.05 1010.28 1010.62 1011.04 1011.46 1011.85 1012.14 1012.31 1012.36 1012.33 1012.27 1012.24 1012.27 1012.37 1012.54 1012.75 1012.96 1013.13 1013.23 1013.25 1013.23 1013.17 1013.11 1013.08 1013.09 1013.14 1013.20 1013.28 1013.34 1013.38 1013.39 1013.39 1013.38 1013.37 1013.37 1013.37 1013.38 1013.40 1013.41 1013.42 1013.43
1009.76 1009.82 1010.00 1010.30 1010.72 1011.19 1011.65 1012.04 1012.32 1012.47 1012.49 1012.43 1012.35 1012.31 1012.33 1012.44 1012.62 1012.84 1013.05 1013.22 1013.34 1013.38 1013.37 1013.33 1013.29 1013.26 1013.27 1013.29 1013.33 1013.37 1013.39 1013.39 1013.37 1013.35 1013.32 1013.30 1013.29 1013.29 1013.30 1013.31 1013.32 1013.33 1013.36
1009.49 1009.60 1009.84 1010.23 1010.71 1011.24 1011.75 1012.16 1012.45 1012.58 1012.59 1012.52 1012.43 1012.38 1012.40 1012.51 1012.68 1012.89 1013.10 1013.28 1013.39 1013.45 1013.46 1013.44 1013.42 1013.40 1013.40 1013.41 1013.42 1013.42 1013.40 1013.36 1013.31 1013.26 1013.22 1013.19 1013.17 1013.16 1013.16 1013.17 1013.18 1013.20 1013.24
1009.17 1009.32 1009.63 1010.08 1010.63 1011.22 1011.77 1012.21 1012.50 1012.64 1012.66 1012.59 1012.51 1012.46 1012.48 1012.58 1012.74 1012.93 1013.13 1013.29 1013.40 1013.47 1013.49 1013.49 1013.49 1013.49 1013.49 1013.49 1013.47 1013.43 1013.38 1013.31 1013.23 1013.15 1013.09 1013.04 1013.01 1013.00 1012.99 1012.98 1012.99 1013.02 1013.06
1008.84 1009.04 1009.40 1009.91 1010.52 1011.15 1011.72 1012.18 1012.49 1012.64 1012.67 1012.63 1012.56 1012.53 1012.56 1012.65 1012.80 1012.97 1013.13 1013.27 1013.37 1013.44 1013.47 1013.49 1013.50 1013.51 1013.51 1013.50 1013.47 1013.41 1013.33 1013.22 1013.12 1013.02 1012.94 1012.88 1012.84 1012.81 1012.79 1012.77 1012.77 1012.78 1012.83
1008.60 1008.83 1009.23 1009.78 1010.41 1011.05 1011.64 1012.10 1012.42 1012.59 1012.64 1012.62 1012.59 1012.59 1012.63 1012.72 1012.85 1013.00 1013.13 1013.24 1013.32 1013.37 1013.40 1013.43 1013.45 1013.47 1013.48 1013.46 1013.42 1013.34 1013.23 1013.11 1012.99 1012.88 1012.79 1012.71 1012.65 1012.61 1012.57 1012.53 1012.52 1012.52 1012.56
1008.47 1008.72 1009.15 1009.71 1010.34 1010.97 1011.53 1011.98 1012.29 1012.47 1012.55 1012.57 1012.59 1012.62 1012.69 1012.79 1012.91 1013.03 1013.12 1013.20 1013.24 1013.27 1013.29 1013.32 1013.34 1013.37 1013.38 1013.36 1013.30 1013.22 1013.10 1012.96 1012.83 1012.71 1012.61 1012.52 1012.45 1012.39 1012.33 1012.29 1012.25 1012.24 1012.25
1008.46 1008.73 1009.16 1009.71 1010.31 1010.90 1011.42 1011.83 1012.12 1012.30 1012.41 1012.47 1012.53 1012.61 1012.71 1012.83 1012.94 1013.04 1013.10 1013.14 1013.15 1013.15 1013.15 1013.16 1013.19 1013.21 1013.22 1013.19 1013.13 1013.04 1012.91 1012.77 1012.62 1012.49 1012.38 1012.29 1012.22 1012.15 1012.08 1012.02 1011.97 1011.94 1011.94
1008.54 1008.82 1009.24 1009.75 1010.30 1010.83 1011.28 1011.64 1011.90 1012.08 1012.20 1012.31 1012.42 1012.54 1012.68 1012.82 1012.93 1013.01 1013.05 1013.05 1013.02 1013.00 1012.98 1012.98 1012.99 1013.01 1013.01 1012.97 1012.90 1012.79 1012.65 1012.50 1012.35 1012.22 1012.10 1012.01 1011.93 1011.86 1011.79 1011.72 1011.66 1011.62 1011.61
1008.62 1008.91 1009.32 1009.79 1010.27 1010.72 1011.10 1011.40 1011.62 1011.79 1011.94 1012.08 1012.24 1012.41 1012.59 1012.74 1012.86 1012.93 1012.95 1012.92 1012.87 1012.82 1012.79 1012.77 1012.77 1012.77 1012.75 1012.71 1012.62 1012.49 1012.33 1012.17 1012.01 1011.86 1011.75 1011.65 1011.57 1011.50 1011.44 1011.37 1011.31 1011.27 1011.24
1008.65 1008.95 1009.33 1009.75 1010.17 1010.54 1010.85 1011.09 1011.29 1011.45 1011.61 1011.79 1011.99 1012.21 1012.42 1012.60 1012.73 1012.79 1012.79 1012.75 1012.69 1012.63 1012.58 1012.55 1012.54 1012.52 1012.48 1012.41 1012.30 1012.14 1011.96 1011.77 1011.59 1011.44 1011.31 1011.21 1011.13 1011.06 1011.00 1010.94 1010.89 1010.84 1010.81
1008.58 1008.88 1009.24 1009.61 1009.97 1010.28 1010.53 1010.73 1010.90 1011.07 1011.26 1011.47 1011.71 1011.96 1012.20 1012.39 1012.53 1012.60 1012.60 1012.56 1012.50 1012.43 1012.38 1012.34 1012.31 1012.28 1012.21 1012.11 1011.96 1011.77 1011.56 1011.34 1011.13 1010.95 1010.80 1010.69 1010.60 1010.53 1010.48 1010.42 1010.37 1010.33 1010.29
1008.42 1008.71 1009.04 1009.37 1009.68 1009.94 1010.16 1010.34 1010.51 1010.70 1010.91 1011.16 1011.43 1011.71 1011.96 1012.17 1012.32 1012.39 1012.40 1012.37 1012.32 1012.26 1012.21 1012.17 1012.13 1012.07 1011.98 1011.83 1011.64 1011.41 1011.15 1010.89 1010.64 1010.43 1010.25 1010.12 1010.01 1009.93 1009.87 1009.81 1009.75 1009.71 1009.67
1008.19 1008.47 1008.77 1009.07 1009.34 1009.57 1009.78 1009.97 1010.17 1010.39 1010.64 1010.92 1011.22 1011.51 1011.77 1011.98 1012.13 1012.21 1012.24 1012.23 1012.19 1012.16 1012.12 1012.07 1012.02 1011.93 1011.80 1011.61 1011.37 1011.09 1010.79 1010.48 1010.19 1009.93 1009.72 1009.54 1009.41 1009.30 1009.21 1009.13 1009.06 1009.00 1008.94
1007.97 1008.22 1008.49 1008.76 1009.01 1009.24 1009.47 1009.69 1009.94 1010.20 1010.50 1010.81 1011.13 1011.42 1011.68 1011.89 1012.03 1012.12 1012.16 1012.17 1012.17 1012.15 1012.12 1012.08 1012.00 1011.89 1011.72 1011.48 1011.20 1010.87 1010.51 1010.16 1009.82 1009.51 1009.25 1009.03 1008.84 1008.69 1008.56 1008.44 1008.34 1008.25 1008.16
1007.84 1008.05 1008.28 1008.52 1008.76 1009.01 1009.27 1009.56 1009.86 1010.19 1010.54 1010.88 1011.20 1011.50 1011.74 1011.93 1012.07 1012.17 1012.22 1012.25 1012.27 1012.27 1012.25 1012.20 1012.11 1011.97 1011.76 1011.48 1011.15 1010.77 1010.37 1009.97 1009.59 1009.23 1008.92 1008.64 1008.39 1008.18 1007.99 1007.82 1007.67 1007.53 1007.40
1007.85 1008.01 1008.19 1008.40 1008.64 1008.92 1009.24 1009.60 1009.98 1010.38 1010.77 1011.14 1011.47 1011.75 1011.97 1012.14 1012.27 1012.36 1012.42 1012.47 1012.51 1012.52 1012.51 1012.46 1012.35 1012.17 1011.93 1011.62 1011.25 1010.84 1010.41 1009.97 1009.54 1009.14 1008.77 1008.42 1008.11 1007.83 1007.57 1007.33 1007.12 1006.92 1006.73
1008.02 1008.12 1008.25 1008.43 1008.68 1008.99 1009.37 1009.81 1010.27 1010.74 1011.18 1011.58 1011.91 1012.17 1012.36 1012.50 1012.61 1012.69 1012.76 1012.82 1012.87 1012.90 1012.89 1012.83 1012.70 1012.50 1012.23 1011.90 1011.50 1011.07 1010.62 1010.16 1009.70 1009.26 1008.83 1008.42 1008.03 1007.67 1007.33 1007.03 1006.74 1006.48 1006.24
1008.33 1008.37 1008.45 1008.61 1008.86 1009.21 1009.65 1010.16 1010.70 1011.24 1011.72 1012.13 1012.46 1012.69 1012.86 1012.97 1013.05 1013.12 1013.19 1013.26 1013.32 1013.36 1013.36 1013.29 1013.16 1012.94 1012.66 1012.31 1011.90 1011.47 1011.01 1010.53 1010.05 1009.57 1009.09 1008.61 1008.15 1007.72 1007.31 1006.93 1006.58 1006.26 1005.96
1008.73 1008.72 1008.76 1008.89 1009.14 1009.53 1010.03 1010.60 1011.21 1011.80 1012.32 1012.74 1013.06 1013.27 1013.40 1013.48 1013.54 1013.61 1013.68 1013.75 1013.82 1013.87 1013.87 1013.81 1013.67 1013.45 1013.16 1012.81 1012.42 1011.98 1011.53 1011.05 1010.55 1010.03 1009.50 1008.97 1008.45 1007.94 1007.46 1007.02 1006.62 1006.25 1005.90
1009.18 1009.13 1009.13 1009.24 1009.50 1009.90 1010.45 1011.07 1011.73 1012.36 1012.90 1013.33 1013.63 1013.82 1013.93 1013.99 1014.03 1014.08 1014.15 1014.24 1014.32 1014.38 1014.38 1014.32 1014.19 1013.98 1013.70 1013.36 1012.98 1012.57 1012.12 1011.64 1011.13 1010.58 1010.01 1009.43 1008.84 1008.28 1007.74 1007.25 1006.81 1006.40 1006.02
1009.63 1009.56 1009.53 1009.63 1009.88 1010.31 1010.87 1011.53 1012.22 1012.86 1013.42 1013.84 1014.13 1014.30 1014.39 1014.43 1014.47 1014.51 1014.59 1014.68 1014.77 1014.83 1014.85 1014.80 1014.68 1014.48 1014.22 1013.90 1013.54 1013.15 1012.71 1012.23 1011.71 1011.14 1010.53 1009.90 1009.27 1008.66 1008.08 1007.55 1007.08 1006.66 1006.26
1010.06 1009.99 1009.96 1010.05 1010.30 1010.72 1011.29 1011.95 1012.64 1013.29 1013.84 1014.26 1014.53 1014.69 1014.77 1014.80 1014.83 1014.87 1014.95 1015.05 1015.15 1015.22 1015.24 1015.20 1015.09 1014.91 1014.67 1014.38 1014.04 1013.66 1013.23 1012.75 1012.22 1011.63 1010.99 1010.32 1009.65 1009.00 1008.40 1007.85 1007.36 1006.93 1006.52
1010.47 1010.42 1010.40 1010.49 1010.73 1011.14 1011.69 1012.34 1013.01 1013.65 1014.18 1014.58 1014.84 1014.99 1015.06 1015.09 1015.12 1015.17 1015.25 1015.35 1015.44 1015.52 1015.54 1015.51 1015.41 1015.24 1015.01 1014.73 1014.41 1014.04 1013.62 1013.14 1012.59 1011.99 1011.33 1010.63 1009.94 1009.26 1008.64 1008.08 1007.59 1007.15 1006.73
1010.87 1010.87 1010.87 1010.97 1011.20 1011.59 1012.11 1012.72 1013.35 1013.95 1014.46 1014.84 1015.09 1015.24 1015.31 1015.34 1015.37 1015.42 1015.50 1015.59 1015.68 1015.74 1015.76 1015.71 1015.61 1015.44 1015.22 1014.95 1014.63 1014.26 1013.84 1013.36 1012.81 1012.19 1011.51 1010.80 1010.09 1009.41 1008.78 1008.21 1007.71 1007.27 1006.85
1011.25 1011.32 1011.36 1011.47 1011.70 1012.06 1012.54 1013.10 1013.69 1014.24 1014.71 1015.07 1015.32 1015.46 1015.54 1015.58 1015.61 1015.66 1015.72 1015.80 1015.86 1015.90 1015.89 1015.83 1015.71 1015.53 1015.30 1015.03 1014.70 1014.33 1013.91 1013.42 1012.86 1012.24 1011.56 1010.85 1010.14 1009.45 1008.81 1008.24 1007.73 1007.28 1006.85
Thickness
5774 5771 5766 5762 5757 5754 5750 5747 5744 5742 5742 5741 5742 5742 5742 5743 5743 5742 5740 5740 5740 5739 5739 5740 5741 5741 5741 5741 5741 5740 5738 5737 5736 5734 5734 5733 5732 5731 5729 5728 5725 5724 5724
5776 5769 5764 5760 5755 5751 5748 5744 5741 5739 5738 5737 5738 5738 5738 5739 5739 5740 5739 5738 5737 5736 5735 5735 5735 5736 5736 5736 5736 5736 5736 5735 5734 5732 5732 5732 5731 5729 5728 5725 5723 5722 5722
5773 5767 5762 5757 5753 5750 5746 5743 5740 5738 5736 5734 5734 5734 5735 5735 5736 5737 5737 5736 5734 5732 5731 5731 5731 5732 5732 5732 5732 5732 5732 5732 5731 5730 5730 5731 5732 5730 5728 5726 5724 5722 5720
5772 5765 5761 5755 5751 5748 5744 5741 5738 5736 5734 5732 5731 5731 5731 5732 5733 5734 5734 5733 5731 5729 5728 5728 5728 5728 5728 5728 5727 5728 5728 5728 5727 5727 5728 5730 5731 5729 5726 5725 5723 5722 5720
5770 5766 5760 5754 5750 5746 5743 5739 5737 5735 5733 5730 5729 5728 5728 5729 5730 5731 5730 5729 5728 5726 5725 5725 5724 5724 5724 5724 5724 5724 5725 5724 5724 5724 5725 5726 5726 5725 5724 5722 5720 5720 5719
5767 5765 5758 5753 5749 5745 5742 5738 5736 5734 5731 5729 5727 5726 5725 5726 5728 5729 5727 5726 5724 5723 5722 5722 5721 5721 5720 5720 5720 5720 5721 5721 5720 5721 5721 5722 5722 5722 5721 5719 5717 5716 5716
5765 5762 5756 5753 5748 5744 5741 5738 5734 5732 5729 5727 5725 5724 5724 5724 5725 5726 5723 5722 5720 5720 5719 5719 5718 5718 5718 5717 5717 5717 5717 5716 5716 5717 5719 5719 5719 5718 5717 5716 5714 5713 5713
5762 5759 5753 5749 5745 5742 5740 5736 5732 5731 5728 5725 5723 5722 5721 5720 5721 5722 5720 5717 5716 5716 5716 5715 5715 5714 5714 5713 5713 5712 5712 5711 5712 5713 5714 5715 5714 5714 5713 5711 5710 5710 5709
5759 5756 5750 5746 5742 5740 5738 5734 5731 5729 5726 5723 5721 5719 5717 5716 5716 5716 5715 5713 5712 5712 5711 5711 5710 5710 5709 5709 5709 5709 5709 5709 5709 5709 5710 5711 5711 5711 5710 5707 5706 5705 5704
5754 5754 5751 5746 5742 5740 5737 5734 5730 5728 5724 5721 5719 5717 5714 5712 5711 5711 5710 5708 5707 5706 5706 5705 5705 5705 5705 5706 5706 5707 5707 5706 5706 5706 5706 5706 5705 5705 5703 5702 5700 5699 5698
5747 5749 5750 5748 5745 5742 5739 5734 5729 5727 5723 5719 5717 5715 5712 5711 5710 5707 5705 5703 5702 5702 5701 5701 5702 5702 5702 5702 5703 5704 5703 5702 5702 5702 5703 5702 5700 5699 5696 5694 5693 5692 5691
5740 5743 5746 5746 5744 5742 5740 5733 5730 5727 5723 5720 5718 5715 5712 5710 5709 5706 5703 5701 5700 5700 5699 5698 5698 5698 5698 5698 5699 5700 5698 5697 5697 5698 5698 5697 5694 5692 5691 5689 5688 5687 5686
5744 5743 5743 5743 5742 5740 5737 5733 5731 5728 5724 5721 5719 5715 5711 5709 5706 5704 5701 5699 5698 5697 5696 5695 5695 5694 5695 5695 5696 5696 5695 5694 5694 5693 5693 5692 5690 5688 5686 5685 5684 5683 5683
5744 5742 5741 5741 5739 5737 5735 5731 5729 5726 5723 5720 5715 5711 5708 5705 5702 5700 5698 5696 5695 5695 5693 5691 5690 5690 5691 5691 5692 5691 5690 5690 5690 5690 5690 5689 5687 5685 5684 5682 5681 5679 5679
5740 5739 5739 5738 5736 5733 5731 5728 5724 5723 5720 5717 5711 5706 5702 5698 5697 5695 5693 5691 5689 5688 5686 5685 5683 5683 5683 5683 5684 5684 5684 5684 5684 5684 5684 5685 5685 5684 5682 5681 5679 5677 5676
5737 5737 5736 5735 5734 5731 5726 5722 5719 5718 5714 5712 5707 5701 5697 5693 5691 5688 5686 5683 5681 5679 5678 5677 5675 5674 5674 5674 5675 5676 5677 5677 5677 5676 5677 5679 5681 5681 5680 5678 5676 5674 5672
5730 5732 5730 5731 5731 5728 5723 5718 5717 5713 5709 5705 5700 5695 5691 5688 5685 5682 5678 5675 5672 5671 5669 5667 5665 5665 5665 5666 5667 5669 5669 5668 5668 5669 5670 5672 5673 5674 5675 5673 5671 5670 5668
5725 5724 5724 5725 5725 5724 5720 5715 5712 5708 5702 5696 5691 5687 5682 5680 5677 5674 5669 5665 5663 5661 5658 5656 5654 5653 5653 5654 5657 5658 5658 5659 5659 5661 5662 5663 5664 5665 5665 5664 5663 5662 5660
5719 5719 5720 5721 5720 5718 5714 5708 5704 5697 5691 5685 5680 5676 5671 5668 5667 5664 5659 5655 5653 5651 5647 5645 5644 5643 5643 5644 5645 5646 5646 5647 5649 5650 5650 5650 5649 5649 5650 5649 5649 5649 5649
5715 5716 5715 5715 5713 5710 5705 5698 5691 5684 5678 5673 5668 5664 5661 5658 5655 5652 5649 5645 5642 5639 5636 5634 5632 5630 5629 5629 5630 5632 5634 5637 5638 5636 5635 5635 5635 5635 5634 5633 5631 5630 5630
5708 5709 5709 5707 5704 5701 5694 5686 5678 5671 5666 5661 5657 5654 5650 5647 5644 5641 5637 5634 5631 5628 5624 5621 5619 5617 5615 5614 5615 5617 5621 5623 5622 5620 5617 5616 5616 5616 5614 5612 5611 5609 5607
5699 5701 5701 5698 5695 5691 5686 5679 5671 5664 5657 5652 5648 5644 5640 5637 5633 5630 5626 5622 5619 5616 5612 5609 5606 5603 5601 5600 5597 5598 5600 5605 5606 5600 5600 5598 5597 5596 5594 5593 5590 5587 5584
5688 5689 5689 5687 5684 5681 5676 5670 5663 5656 5649 5643 5638 5633 5630 5626 5622 5618 5615 5611 5607 5604 5600 5597 5593 5590 5587 5585 5581 5575 5570 5572 5580 5586 5583 5581 5579 5575 5572 5569 5566 5563 5559
5678 5680 5680 5678 5675 5672 5668 5662 5655 5646 5638 5634 5630 5626 5621 5615 5610 5607 5604 5601 5597 5593 5588 5584 5581 5577 5572 5568 5565 5559 5552 5549 5548 5556 5560 5558 5555 5552 5548 5546 5541 5536 5532
5669 5669 5668 5667 5664 5662 5658 5653 5646 5638 5632 5628 5623 5618 5612 5606 5600 5596 5594 5590 5586 5581 5576 5572 5568 5563 5558 5553 5548 5543 5539 5533 5529 5528 5535 5536 5533 5529 5524 5519 5512 5507 5501
5659 5658 5656 5655 5652 5650 5647 5642 5637 5630 5623 5617 5611 5607 5602 5597 5591 5586 5583 5580 5576 5570 5565 5559 5554 5548 5543 5538 5532 5526 5520 5514 5509 5506 5509 5514 5513 5510 5501 5494 5485 5478 5470